User: anonymous   Login
Location: Mentone
(34.5413°N, 85.5351°W)
Time: 02:55:37
(UTC-05:00)
Language:

Centaur AC-72 - Orbit

View from above orbital plane
View from above orbital plane
View from above satellite
View from above satellite

Ground track
Ground track

The orbit data is extracted from the following two-line orbital elements,

1 21907U 92013B   15107.53391122 -.00000154  00000-0  00000+0 0  9994
2 21907 018.9569 163.0704 6952491 050.1860 013.6050 02.25606620190404
Epoch (UTC): 17 April 2015 12:48:49
Eccentricity: 0.6952491
inclination: 18.9569°
perigee height: 1105 km
apogee height: 35251 km
right ascension of ascending node: 163.0704°
argument of perigee: 50.1860°
revolutions per day: 2.25606620
mean anomaly at epoch: 13.6050°
orbit number at epoch: 19040

The dashed part of the orbit path shows where the satellite is in the earth's shadow,  

DLR